This is the latest recevied weather packets stored in our database for station/object K0RGI. If no packets are shown the sender has not sent any weather packets the latest 1 day(s).
| Time | Temp. | Humidity | Pressure | Rain* | Wind** | Luminosity | Snow |
|---|---|---|---|---|---|---|---|
| 1836274263 | 20.56° C | 91% | 1020.2 hPa | 0 mm | 0 m/s | 0 W/m² | - |
| 1836274117 | 20° C | 91% | 1020.2 hPa | 0 mm | 0 m/s | 0 W/m² | - |
| 1778047456 | 21.11° C | 56% | 1012.6 hPa | 0 mm | 0.89 m/s, 259° | 0 W/m² | - |
| 1778046855 | 21.11° C | 55% | 1012.8 hPa | 0 mm | 0.45 m/s, 206° | 0 W/m² | - |
| 1778046255 | 21.11° C | 54% | 1012.7 hPa | 0 mm | 1.34 m/s, 268° | 0 W/m² | - |
| 1778045655 | 21.67° C | 53% | 1012.8 hPa | 0 mm | 1.79 m/s, 245° | 0 W/m² | - |
| 1778045052 | 21.67° C | 53% | 1012.7 hPa | 0 mm | 1.34 m/s, 254° | 0 W/m² | - |
| 1778044451 | 21.67° C | 52% | 1012.6 hPa | 0 mm | 1.34 m/s, 274° | 0 W/m² | - |
| 1778043852 | 21.67° C | 51% | 1012.8 hPa | 0 mm | 1.34 m/s, 246° | 0 W/m² | - |
| 1778043251 | 21.67° C | 50% | 1013 hPa | 0 mm | 1.79 m/s, 287° | 0 W/m² | - |
| 1778042646 | 21.67° C | 51% | 1013 hPa | 0 mm | 0.45 m/s, 280° | 0 W/m² | - |
| 1778042046 | 21.11° C | 51% | 1012.8 hPa | 0 mm | 1.79 m/s, 273° | 0 W/m² | - |
| 1778041443 | 21.11° C | 51% | 1012.6 hPa | 0 mm | 0.45 m/s, 270° | 0 W/m² | - |
| 1778040837 | 21.67° C | 50% | 1012.6 hPa | 0 mm | 1.79 m/s, 272° | 0 W/m² | - |
| 1778040232 | 21.67° C | 50% | 1012.8 hPa | 0 mm | 0.89 m/s, 250° | 0 W/m² | - |
| 1778039631 | 21.67° C | 49% | 1012.6 hPa | 0 mm | 0.89 m/s, 242° | 0 W/m² | - |
| 1778039031 | 21.67° C | 49% | 1012.6 hPa | 0 mm | 1.34 m/s, 157° | 0 W/m² | - |
| 1778038431 | 22.22° C | 48% | 1012.8 hPa | 0 mm | 0.89 m/s, 241° | 0 W/m² | - |
| 1778037830 | 22.22° C | 48% | 1013.1 hPa | 0 mm | 1.79 m/s, 274° | 0 W/m² | - |
| 1778037230 | 22.22° C | 48% | 1013 hPa | 0 mm | 1.79 m/s, 157° | 0 W/m² | - |
| 1778036626 | 22.22° C | 48% | 1013.1 hPa | 0 mm | 1.34 m/s, 224° | 0 W/m² | - |
| 1778036024 | 21.67° C | 49% | 1013.4 hPa | 0 mm | 3.58 m/s, 315° | 0 W/m² | - |
| 1778035424 | 21.67° C | 50% | 1013.2 hPa | 0 mm | 1.34 m/s, 281° | 0 W/m² | - |
| 1778034823 | 21.67° C | 50% | 1013 hPa | 0 mm | 1.34 m/s, 255° | 0 W/m² | - |
| 1778034223 | 21.67° C | 50% | 1012.8 hPa | 0 mm | 0.89 m/s, 254° | 0 W/m² | - |
* Rain latest hour (hover to see other rain measurements)
** Current wind speed in m/s (hover to see current wind gust speed)